Home > Weather > Prince Albert > Past weeks

Flag for Canada Weather for the Past 2 Weeks in Prince Albert, Saskatchewan, Canada

Now
19 °F

Clear.


Feels Like: 9 °F
Forecast: 13 / 26 °F
Wind: 9 mph from North

Location: Prince Albert

Current Time: Feb 7, 2016 at 11:26:21 PM

Latest Report: Feb 7, 2016 at 10:00 PM


Visibility: 15 mi

Pressure: 30.37 "Hg

Humidity: 79%

Dew point: 14 °F

Location of Prince AlbertLocation

Historic Weather in Prince Albert — Graph

°F

Prince Albert Temperature Yesterday

Maximum temperature yesterday: 39 °F (at 7:00 PM)
Minimum temperature yesterday: 12 °F (at 12:00 AM)
Average temperature yesterday: 25 °F

High & Low Weather Summary for the Past Weeks

 TemperatureHumidityPressure
High41 °F (Jan 27, 12:00 PM)100% (Jan 28, 1:00 AM)30.36 "Hg (Jan 28, 1:00 AM)
Low-2 °F (Feb 1, 9:00 PM)56% (Feb 6, 9:00 PM)29.25 "Hg (Jan 29, 2:00 PM)
Average20 °F81%29.87 "Hg
* Reported Jan 23 9:00 PM — Feb 7 9:00 PM, Prince Albert, Weather by CustomWeather, © 2016

Note: Actual official high and low records may vary slightly from our data, if they occured in-between our weather recording intervals... More about our weather records

Advertising

Prince Albert Weather History for the Previous 24 Hours

 ConditionsComfort  
Time TempWeatherWind HumidityBarometerVisibility
9:00 PM
Sun, Feb 7
21 °FClear.9 mph80%30.36 "Hg15 mi
8:00 PM21 °FClear.7 mph80%30.35 "Hg15 mi
7:00 PM25 °FPassing clouds.7 mph74%30.33 "Hg15 mi
6:00 PM27 °FPassing clouds.12 mph69%30.30 "Hg15 mi
5:00 PM28 °FPassing clouds.12 mph64%30.29 "Hg15 mi
4:00 PM28 °FPassing clouds.16 mph64%30.28 "Hg15 mi
3:00 PM28 °FScattered clouds.17 mph64%30.27 "Hg15 mi
2:00 PM27 °FPartly sunny.20 mph69%30.25 "Hg15 mi
1:00 PM27 °FPartly sunny.21 mph69%30.23 "Hg15 mi
12:00 PM25 °FOvercast.15 mph74%30.22 "Hg15 mi
11:00 AM23 °FOvercast.15 mph80%30.20 "Hg15 mi
10:00 AM23 °FOvercast.16 mph80%30.16 "Hg15 mi
9:00 AM21 °FOvercast.15 mph74%30.14 "Hg15 mi
8:00 AM19 °FPassing clouds.18 mph73%30.11 "Hg15 mi
7:00 AM18 °FLight snow. Passing clouds.18 mph79%30.08 "Hg15 mi
6:00 AM18 °FLight snow. Overcast.15 mph79%30.04 "Hg15 mi
5:00 AM18 °FLight snow. Overcast.13 mph73%30.00 "Hg15 mi
4:00 AM18 °FLight snow. Overcast.22 mph73%29.96 "Hg10 mi
3:00 AM19 °FLight snow. Ice fog.24 mph73%29.91 "Hg3 mi
2:00 AM19 °FLight snow. Mostly cloudy.28 mph68%29.85 "Hg15 mi
1:00 AM25 °FPassing clouds.24 mph63%29.78 "Hg15 mi
12:00 AM28 °FLight snow. Overcast.24 mph69%29.71 "Hg15 mi
11:00 PM
Sat, Feb 6
34 °FLight snow. Mostly cloudy.33 mph65%29.64 "Hg15 mi
Weather by CustomWeather, © 2016

See weather overviewHow to use our weather pages